Location: Azat
(46.0765°N, 1.7600°E)
Time: 07:41:09
(UTC+00:00)

Daily predictions for brighter satellites

Satellite Brightness Start Highest point End
(mag) Time Altitude Azimuth Time Altitude Azimuth Time Altitude Azimuth
Cosmos 2058 Rocket 4.2 18:55:22 10° SE 18:59:03 25° E 19:02:43 10° NNE
Meteor 1-21 Rocket 4.4 18:55:20 10° NNW 19:00:53 80° W 19:06:26 10° S
Cosmos 1726 Rocket 4.1 18:57:29 10° SSE 19:01:35 39° E 19:05:45 10° NNE
STARLINK-1228 3.3 18:59:31 10° NW 19:02:23 46° NNE 19:05:15 10° E
SL-08 RB Rocket 4.5 18:58:33 10° SE 19:02:39 34° ENE 19:06:49 10° N
Cosmos 1461 3.5 18:58:21 10° NNW 19:02:46 51° NE 19:07:19 10° SE
IRIDIUM 103 4.3 18:59:13 10° N 19:04:28 75° E 19:09:41 10° S
Cosmos 921 Rocket 4.0 19:01:50 10° N 19:05:30 29° ENE 19:09:10 10° ESE
SL-4 R/B 1.9 19:02:17 10° WSW 19:05:40 65° NNW 19:09:05 10° ENE
Cosmos 1726 2.1 19:02:30 10° S 19:06:13 86° E 19:09:58 10° N
Cosmos 1703 3.5 19:02:21 10° N 19:06:14 51° ENE 19:10:06 10° SSE
Meteor 2-10 4.2 19:02:36 10° S 19:08:06 84° E 19:13:49 10° NNE
Cosmos 1437 2.8 19:05:27 10° NNW 19:08:29 72° W 19:11:28 10° S
Cosmos 2184 Rocket 4.0 19:02:29 10° N 19:08:48 76° E 19:15:00 10° SSE
Cosmos 407 Rocket 3.6 19:04:32 10° S 19:09:28 49° ESE 19:14:25 10° NNE
ADEOS Rocket 3.8 19:03:27 10° N 19:09:37 56° WNW 19:15:12 10° SW
Cosmos 1825 Rocket 3.5 19:05:13 10° N 19:09:38 77° E 19:13:57 10° SSE
Cosmos 1908 3.5 19:06:18 10° SSE 19:10:00 46° E 19:13:45 10° NNE
Cosmos 1340 Rocket 3.6 19:06:53 10° SSE 19:10:28 31° E 19:14:03 10° NNE
FREGAT/IRIS 2.5 19:08:41 10° SSE 19:11:19 50° ENE 19:13:58 10° N
STARLINK-1201 3.8 19:08:17 10° NW 19:11:24 41° NNE 19:14:32 10° E
Cosmos 1656 Rocket 3.8 19:06:37 10° NNW 19:12:18 81° WSW 19:17:51 10° SSE
Cosmos 2228 3.0 19:08:12 10° S 19:12:27 60° E 19:16:45 10° NNE
Cosmos 1328 3.9 19:08:59 10° N 19:12:57 59° ENE 19:16:54 10° SSE
Cosmos 1943 3.7 19:10:44 10° SW 19:16:21 66° WNW 19:22:03 10° NNE
MOS 1 4.3 19:13:01 10° SSE 19:18:38 71° ENE 19:24:18 10° N
Resurs 01 Rocket 2.9 19:17:43 10° ESE 19:21:04 23° ENE 19:24:32 10° NNE
STARLINK-52 3.1 19:18:51 10° SW 19:21:59 52° SE 19:25:07 10° ENE
MOS 1 Rocket 4.5 19:18:28 10° NNE 19:23:11 29° E 19:27:53 10° SSE
Cosmos 1758 Rocket 4.1 19:20:06 10° NNW 19:24:24 62° W 19:28:38 10° S
CZ-2C R/B 3.5 19:20:09 10° NE 19:24:31 27° E 19:28:53 10° SSE
Nadezhda 1 Rocket 4.0 19:18:27 10° S 19:24:44 66° E 19:31:01 10° NNE
BREEZE M DEB (TANK) 3.5 19:22:28 10° S 19:25:04 26° SE 19:30:22 10° ENE
SPOT 3 Rocket 3.8 19:23:37 10° SE 19:28:38 50° ENE 19:33:39 10° N
SL-24 R/B - RUBIN 2 4.2 19:23:08 10° SSW 19:28:43 77° ESE 19:35:01 10° NE
ARGOS 3.1 19:24:39 10° SSE 19:30:02 84° ENE 19:35:27 10° NNW
FALCON 9 DEB 3.1 19:26:50 10° SW 19:30:18 65° SE 19:33:47 10° ENE
Cosmos 2154 Rocket 4.0 19:25:26 10° N 19:31:49 74° E 19:38:07 10° SSE
Cosmos 1606 Rocket 3.7 19:27:42 10° SSW 19:32:08 80° W 19:36:38 10° N
Cosmos 1953 Rocket 3.6 19:28:11 10° N 19:32:42 90° N 19:37:12 10° S
GEOS 3 Rocket 4.1 19:28:32 10° SSE 19:33:36 61° SW 19:38:47 10° NW
NOSS 3-4 (A) 4.0 19:27:21 10° NW 19:34:23 80° SW 19:42:08 10° SSE
NOSS 3-4 (C) 4.0 19:27:28 10° NW 19:34:30 81° SW 19:42:15 10° SSE
Cosmos 1954 Rocket 4.4 19:29:52 10° S 19:34:44 40° ESE 19:39:36 10° NE
STARLINK-1236 4.5 19:30:56 10° NW 19:34:53 42° NNE 19:38:11 14° E
USA 186 2.1 19:32:19 10° S 19:35:35 68° W 19:38:42 10° NNW
STARLINK-67 2.9 19:35:26 10° WNW 19:37:56 50° SW 19:39:24 21° SSE
Meteor 1-11 4.3 19:37:06 10° N 19:42:53 89° E 19:48:34 10° S
STARLINK-1269 4.3 19:40:53 10° NW 19:44:53 46° NNE 19:47:44 18° E
STARLINK-1200 4.2 19:45:52 10° NW 19:49:53 48° NNE 19:52:31 20° E
STARLINK-1234 2.9 19:51:22 10° WNW 19:54:29 71° SSW 19:55:47 31° SE
STARLINK-1192 4.2 19:50:50 10° NW 19:54:53 50° NNE 19:57:18 22° E
STARLINK-1209 3.0 19:51:51 10° WNW 19:54:57 66° SW 19:56:15 31° SE
STARLINK-1233 2.8 19:52:14 10° WNW 19:55:23 88° NNE 19:56:38 33° ESE
STARLINK-1212 2.8 19:52:42 10° WNW 19:55:51 88° NE 19:57:04 34° ESE
STARLINK-1105 2.8 19:53:08 10° WNW 19:56:17 89° NNE 19:57:31 34° ESE
STARLINK-1206 2.8 19:53:36 10° WNW 19:56:44 90° NNW 19:57:55 35° ESE
STARLINK-1247 2.8 19:54:04 10° WNW 19:57:12 89° S 19:58:22 35° ESE
STARLINK-1227 2.8 19:54:28 10° WNW 19:57:37 89° SSW 19:58:47 35° ESE
SeaSat 1 4.1 19:53:20 10° NNE 19:57:51 37° NW 20:02:21 10° WSW
STARLINK-1218 2.8 19:54:58 10° WNW 19:58:06 88° SSW 19:59:13 36° ESE
Iridium 4 Rocket 4.2 19:55:06 10° NNE 19:58:29 23° ENE 19:59:06 22° E
STARLINK-1226 2.8 19:55:24 10° WNW 19:58:33 88° SSW 19:59:40 37° SE
Cosmos 1980 Rocket 4.3 19:56:13 10° N 19:58:54 13° NE 20:01:35 10° ENE
STARLINK-1254 2.8 19:55:50 10° WNW 19:58:59 87° SSW 20:00:06 37° SE
STARLINK-1215 2.8 19:56:19 10° WNW 19:59:28 86° SSW 20:00:32 38° SE
STARLINK-1231 2.8 19:56:47 10° WNW 19:59:54 85° SSW 20:00:58 38° SE
STARLINK-1244 4.1 19:55:54 10° NW 19:59:58 53° NNE 20:02:10 25° E
STARLINK-1232 2.8 19:57:41 10° WNW 20:00:49 84° SSW 20:01:50 39° SE
USA 234 4.0 19:55:28 10° ENE 20:00:57 28° SE 20:06:24 10° S
STARLINK-1217 2.8 19:58:08 10° WNW 20:01:15 83° SSW 20:02:16 39° SE
Abrixas rocket 2.0 19:58:23 10° WNW 20:01:20 65° SSW 20:02:07 42° SE
STARLINK-1208 2.8 19:58:32 10° WNW 20:01:42 83° SSW 20:02:43 39° SE
Cosmos 1892 4.0 19:58:35 10° NNE 20:01:46 24° ENE 20:02:13 23° E
STARLINK-1229 2.8 19:59:01 10° WNW 20:02:09 82° SSW 20:03:07 40° SE
STARLINK-1271 2.8 19:59:29 10° WNW 20:02:37 81° SSW 20:03:34 41° SE
STARLINK-1270 2.8 19:59:56 10° WNW 20:03:03 81° SSW 20:04:00 41° SE
STARLINK-1154 2.8 20:00:23 10° WNW 20:03:31 80° SSW 20:04:26 42° SE
H-2A R/B 3.2 19:58:45 10° SSW 20:03:37 41° W 20:08:25 10° NNW
ATLAS 5 CENTAUR R/B 2.0 20:00:00 10° SW 20:04:07 62° NW 20:08:49 10° NE
STARLINK-1197 2.8 20:01:17 10° WNW 20:04:25 79° SSW 20:05:18 43° SE
STARLINK-1189 2.8 20:01:43 10° WNW 20:04:51 78° SW 20:05:43 43° SE
STARLINK-1138 4.0 20:00:48 10° NW 20:04:53 56° NNE 20:06:52 28° E
STARLINK-1198 2.8 20:02:12 10° WNW 20:05:19 77° SSW 20:06:10 44° SE
STARLINK-1188 2.8 20:02:37 10° WNW 20:05:45 77° SSW 20:06:35 44° SE
Cosmos 1825 4.5 20:04:52 10° NE 20:05:39 11° ENE 20:05:39 11° ENE
STARLINK-1235 3.1 20:03:18 10° WNW 20:06:25 59° SW 20:07:18 39° SSE
ATLAS 2AS CENTAUR R/B 3.5 19:59:13 10° NW 20:06:25 50° WSW 20:13:00 10° S
STARLINK-1187 3.0 20:03:42 10° WNW 20:06:51 66° SW 20:07:42 42° SSE
STARLINK-1199 2.9 20:04:35 10° WNW 20:07:43 74° SW 20:08:31 46° SE
STARLINK-1191 2.9 20:05:01 10° WNW 20:08:10 73° SSW 20:08:56 46° SE
STARLINK-1210 2.9 20:05:29 10° WNW 20:08:37 72° SSW 20:09:23 47° SE
STARLINK-1221 2.9 20:05:56 10° WNW 20:09:05 72° SSW 20:09:49 47° SE
STARLINK-1219 2.9 20:06:23 10° WNW 20:09:31 71° SW 20:10:15 47° SE
COSMOS 2455 2.9 20:03:37 10° NW 20:09:40 78° WSW 20:13:57 20° SSE
STARLINK-1143 3.9 20:05:46 10° NW 20:09:52 59° NNE 20:11:39 31° E
STARLINK-1222 2.9 20:06:50 10° WNW 20:09:58 70° SW 20:10:40 48° SSE
STARLINK-1211 2.9 20:07:18 10° WNW 20:10:26 70° SW 20:11:07 48° SSE
STARLINK-1214 2.9 20:07:44 10° WNW 20:10:52 69° SW 20:11:33 49° SSE
STARLINK-1245 2.9 20:08:13 10° WNW 20:11:19 68° SW 20:11:57 50° SSE
Cosmos 1140 Rocket 3.8 20:06:24 10° SSW 20:11:33 67° WNW 20:16:43 10° NNE
STARLINK-1238 2.9 20:08:38 10° WNW 20:11:46 68° SW 20:12:25 49° SSE
STARLINK-1205 2.9 20:09:34 10° WNW 20:12:41 66° SW 20:13:16 51° SSE
STARLINK-1204 2.9 20:10:01 10° WNW 20:13:08 66° SSW 20:13:42 51° SSE
ERBS 2.8 20:10:17 10° NW 20:13:35 47° NE 20:14:20 38° ENE
STARLINK-1241 3.8 20:10:47 10° NW 20:14:54 62° NNE 20:16:28 35° E
STARLINK-29 3.8 20:14:37 10° WSW 20:17:44 49° NNW 20:19:44 20° NE
STARLINK-1239 3.7 20:15:44 10° WNW 20:19:52 66° NNE 20:21:14 39° E
IGS 5A 4.4 20:20:27 29° ENE 20:20:49 29° ENE 20:24:25 10° N
ATLAS CENTAUR R/B 3.2 20:18:37 10° N 20:21:11 16° NE 20:22:10 15° NE
SAR-Lupe-2 4.0 20:18:08 10° NNE 20:21:14 42° E 20:21:14 42° E
Cosmos 1300 2.8 20:18:06 10° SSW 20:21:54 77° W 20:25:45 10° N
Resurs 1-3 3.9 20:18:54 17° S 20:22:10 65° WSW 20:26:33 10° NNW
Spot 2 Rocket 3.8 20:22:15 34° ESE 20:24:07 50° ENE 20:29:03 10° N
STARLINK-1240 3.7 20:20:43 10° WNW 20:24:51 70° NNE 20:26:01 45° E
Cosmos 1850 Rocket 4.2 20:24:22 28° SSE 20:26:39 46° ESE 20:31:36 10° NNE
In-Cosmos 22 Rocket 4.2 20:23:55 10° N 20:29:48 75° ENE 20:32:45 30° SSE
STARLINK-1216 3.6 20:25:41 10° WNW 20:29:50 75° NNE 20:30:47 51° E
Terra 3.5 20:29:53 18° ENE 20:30:12 19° ENE 20:33:27 10° NNE
SPOT 5 4.0 20:31:40 22° ENE 20:31:40 22° ENE 20:34:59 10° NNE
STPSAT 2 (USA 217) 4.5 20:27:40 10° SSW 20:32:09 89° SE 20:36:41 10° NNE
Meteor 2-10 Rocket 4.3 20:33:51 33° E 20:33:51 33° E 20:38:39 10° NNE
MetOp-B 4.1 20:32:14 35° SSE 20:34:30 72° ENE 20:39:52 10° N
STARLINK-1237 3.5 20:30:38 10° WNW 20:34:48 80° NNE 20:35:33 58° ESE
Cosmos 1833 Rocket 4.0 20:39:02 23° ENE 20:39:02 23° ENE 20:41:55 10° NE
STARLINK-1202 3.5 20:35:38 10° WNW 20:39:48 85° NNE 20:40:21 66° ESE
Cosmos 468 Rocket 3.9 20:35:52 10° NNW 20:41:03 76° ENE 20:42:31 47° SE
Cosmos 192 4.3 20:36:49 10° NNW 20:41:49 87° WSW 20:43:22 45° SSE
SL-4 R/B 3.1 20:42:31 10° WNW 20:45:37 31° N 20:46:33 27° NNE
ERS-1 Rocket 3.4 20:47:01 40° E 20:47:31 41° ENE 20:52:14 10° N
STARLINK-1201 4.3 20:44:36 10° WNW 20:47:06 33° WSW 20:47:06 33° WSW
Cosmos 1408 3.7 20:44:22 10° N 20:46:55 34° NE 20:46:55 34° NE
STARLINK-1246 3.4 20:45:35 10° WNW 20:49:45 84° SSW 20:49:54 80° SSE
RESURS DK-1 2.9 20:46:21 10° NNW 20:50:15 45° NE 20:50:15 45° NE
BREEZE M DEB (TANK) 3.1 20:45:28 10° WSW 20:52:44 72° NNW 20:53:25 54° NE
Cosmos 1570 Rocket 4.2 20:48:27 10° NNW 20:53:44 57° ENE 20:54:32 51° E
STARLINK-1224 3.5 20:50:36 10° WNW 20:54:43 78° SW 20:54:43 78° SW
Okean 3 Rocket 4.2 20:50:46 10° N 20:54:33 42° ENE 20:54:33 42° ENE
Meteor 2-12 Rocket 4.3 20:49:15 10° N 20:55:23 84° E 20:57:32 43° SSE
Cosmos 2058 3.1 20:52:45 10° NNW 20:56:51 66° W 20:57:24 58° SW
COSMOS 2406 3.1 20:54:53 40° S 20:56:52 65° ESE 21:02:32 10° NNE
STARLINK-1203 3.7 20:52:57 10° WNW 20:57:04 70° SW 20:57:04 70° SW
Resurs 01 Rocket 2.7 20:55:17 25° SSW 20:57:20 40° W 21:01:31 10° NNW
CZ-4C R/B 3.6 20:51:59 10° NNW 20:58:33 42° NE 21:01:49 29° E
STARLINK-1225 3.7 20:55:36 10° WNW 20:59:30 70° WSW 20:59:30 70° WSW
Cosmos 2218 Rocket 4.3 20:57:38 10° NNW 21:03:48 66° W 21:07:06 29° SSW
Cosmos 1812 Rocket 4.1 21:02:25 34° SW 21:04:05 56° WNW 21:08:22 10° N
STARLINK-1230 3.9 21:00:34 10° WNW 21:04:16 62° WSW 21:04:16 62° WSW
CZ-2C R/B 3.7 21:00:05 10° N 21:04:58 43° WNW 21:09:52 10° SW
Cosmos 2151 3.3 21:04:05 10° N 21:07:34 55° NNE 21:07:34 55° NNE
STARLINK-1243 4.1 21:05:32 10° WNW 21:09:03 54° WSW 21:09:03 54° WSW
Cosmos 1697 Rocket 2.7 21:08:20 10° NNW 21:13:59 61° ENE 21:14:29 58° E
Cosmos 2369 3.8 21:08:29 10° NNW 21:14:06 60° ENE 21:14:33 58° E
STARLINK-1236 4.3 21:10:32 10° WNW 21:13:50 48° W 21:13:50 48° W
Cosmos 1741 Rocket 4.4 21:21:15 22° SW 21:24:38 61° WNW 21:29:55 10° NNE
Landsat 7 4.1 21:25:10 60° WSW 21:25:23 61° W 21:30:07 10° NNW
Cosmos 1455 3.7 21:31:25 35° NNW 21:31:25 35° NNW 21:33:51 10° N
Cosmos 1763 Rocket 4.0 21:26:07 10° NNW 21:31:05 49° WSW 21:31:31 47° WSW
SPOT 1/Viking Rocket 3.7 21:30:44 63° SW 21:31:09 66° WSW 21:36:22 10° NNW
Cosmos 1656 3.9 21:26:43 10° NNW 21:32:18 59° WSW 21:32:50 57° SW
Cosmos 540 Rocket 3.5 21:29:30 10° NNW 21:34:20 78° NNW 21:34:20 78° NNW
SL-16 R/B 3.9 21:31:18 10° N 21:35:28 20° NE 21:36:11 20° NE
Cosmos 2208 Rocket 4.0 21:31:03 10° NNW 21:36:03 76° WNW 21:36:03 76° WNW
Cosmos 1825 3.9 21:38:18 10° NNW 21:40:28 31° NNW 21:40:28 31° NNW
Nadezhda 3 Rocket 3.9 21:41:26 71° SSW 21:42:12 87° W 21:48:31 10° N
Cosmos 2322 Rocket 4.0 21:38:23 10° N 21:42:24 19° NE 21:43:04 19° NE
Cosmos 1980 Rocket 2.5 21:38:37 10° NNW 21:43:48 57° NE 21:43:48 57° NE
USA 234 3.1 21:37:55 10° NE 21:44:30 89° SE 21:51:03 10° SW
Cosmos-2242 4.1 21:45:30 44° NW 21:45:30 44° NW 21:49:00 10° N
Cosmos 1814 Rocket 4.2 21:41:11 10° NNW 21:46:08 71° WNW 21:46:08 71° WNW
Cosmos 1535 Rocket 4.5 21:41:05 10° N 21:46:59 66° ENE 21:46:59 66° ENE
ASTEX 1 4.2 21:50:00 44° NNE 21:50:00 44° NNE 21:53:32 10° N
Meteor 2-3 Rocket 3.8 21:50:13 10° N 21:55:21 70° NNE 21:55:21 70° NNE
ATLAS CENTAUR R/B 3.5 21:56:46 10° NW 21:58:21 23° NW 21:58:21 23° NW
Terra 2.8 22:08:45 44° NW 22:08:45 44° NW 22:12:14 10° NNW
Mayak 1.1 22:03:47 10° NNE 22:04:58 18° NNE 22:04:58 18° NNE
SPOT 5 4.3 22:10:53 31° WNW 22:10:53 31° WNW 22:13:36 10° NNW
Cosmos 1821 Rocket 4.5 22:04:34 10° NNW 22:10:45 53° W 22:11:20 51° WSW
Cosmos 1934 Rocket 4.0 22:05:37 10° N 22:11:27 77° NW 22:11:27 77° NW
Cosmos 2082 Rocket 2.9 22:15:56 48° NNE 22:15:56 48° NNE 22:19:59 10° NNE
Cosmos 2278 4.2 22:09:45 10° NNW 22:14:24 57° WNW 22:14:24 57° WNW
Cosmos 1833 Rocket 3.3 22:20:38 50° WNW 22:20:52 50° WNW 22:26:22 10° NNE
Cosmos 1605 Rocket 4.2 22:24:07 10° N 22:29:21 66° N 22:29:21 66° N
Cosmos 2344 4.3 22:26:01 10° NW 22:35:41 90° E 22:38:35 60° SE
CZ-4C R/B 3.1 22:40:22 10° NW 22:46:59 62° W 22:46:59 62° W
SL-16 R/B 3.4 23:14:36 10° NNW 23:18:02 38° NNW 23:18:02 38° NNW
Cosmos 2360 Rocket 3.5 23:15:32 10° NNW 23:19:17 36° NNE 23:19:17 36° NNE
USA 234 4.2 23:21:04 10° NE 23:27:09 43° NNW 23:33:14 10° W
Cosmos 2322 Rocket 3.5 23:21:34 10° NNW 23:24:52 37° NNW 23:24:52 37° NNW
Cosmos 1980 Rocket 4.3 23:23:24 10° NW 23:25:34 19° WNW 23:25:34 19° WNW
Mayak 1.8 23:41:01 10° NNW 23:41:32 11° NW 23:41:32 11° NW
Cosmos 2333 Rocket 3.8 23:38:10 10° N 23:42:25 29° NE 23:42:25 29° NE
